Location: Newark
(32.2836°N, 83.4767°W)
Time: 11:54:54
(UTC+00:00)

Envisat - Visible Passes

Search period start: 27 January 2020 00:00
Search period end: 06 February 2020 00:00
Orbit: 764 x 766 km, 98.1° (Epoch: 27 January)

Date Brightness Start Highest point End Pass type
(mag) Time Alt. Az. Time Alt. Az. Time Alt. Az.
27 Jan 4.4 11:43:36 10° NNE 11:48:27 44° E 11:53:16 10° S visible
28 Jan 5.7 00:33:31 10° SW 00:37:12 20° W 00:40:56 10° NW visible
28 Jan 6.0 11:08:04 10° NE 11:11:30 18° E 11:14:55 10° SE visible
28 Jan 4.1 23:55:23 10° S 00:00:17 49° W 00:05:13 10° NNW visible
30 Jan 6.5 01:02:18 10° W 01:02:55 10° W 01:03:31 10° W visible
30 Jan 4.9 11:32:32 10° NNE 11:37:07 34° E 11:41:41 10° SSE visible
31 Jan 5.3 00:21:39 10° SSW 00:25:51 26° W 00:30:06 10° NW visible
31 Jan 6.2 10:57:36 10° ENE 11:00:07 14° E 11:02:37 10° ESE visible
31 Jan 3.5 23:43:57 10° S 23:48:59 65° WSW 23:54:02 10° NNW visible
01 Feb 3.6 11:57:37 10° NNE 12:02:40 64° E 12:07:41 10° S visible
02 Feb 6.2 00:48:56 10° SW 00:51:31 14° W 00:54:06 10° WNW visible
02 Feb 5.4 11:21:34 10° NE 11:25:47 26° E 11:29:58 10° SSE visible
03 Feb 4.8 00:09:57 10° SSW 00:14:31 34° W 00:19:07 10° NNW visible
03 Feb 3.1 23:32:37 10° SSE 23:37:41 85° WSW 23:42:47 10° NNW visible
04 Feb 4.2 11:46:26 10° NNE 11:51:22 49° E 11:56:15 10° S visible
05 Feb 5.9 00:36:41 10° SW 00:40:08 18° W 00:43:37 10° NW visible
05 Feb 5.9 11:10:44 10° NE 11:14:26 20° E 11:18:05 10° SE visible
